カタログに戻る

STARLINK-34857

運用中通信VLEO
NORAD 65102·PAYLOAD·🇺🇸 United States

打ち上げ Aug 4, 2025 から Cape Canaveral Space Force Station

Loading…

次のパス (今後24時間)

TLE

最新Source: CelesTrak SupGP

元期: Sep 15, 2026, 03:06 UTC

1 65102C 25167AA  26258.12965278 -.00046147  00000+0 -13636-2 0  2580
2 65102  53.1585 219.1733 0001552  91.9535 146.1152 15.34409180    10

AllMySatでSTARLINK-34857をリアルタイム追跡

Download on the App Store